Weather Roundup
Issued by NWS

Home | Current Version | Previous Version | Text Only | Print | Product List | Glossary On
Versions: 1 2 3 4 5 6 7 8 9 10 11 12 13 14 15 16 17 18 19 20 21 22 23 24 25 26 27 28 29 30 31 32 33 34 35 36 37 38 39 40 41 42 43 44 45 46 47 48 49 50
000
NZUS93 KARX 171759
HRRWXR

CURRENT HOURLY OBSERVATIONS ACROSS
MUCH OF THE UPPER MISSISSIPPI VALLEY
NATIONAL WEATHER SERVICE LA CROSSE WI
100 PM CDT TUE OCT 17 2017


...SOUTHEAST MINNESOTA...


CITY           SKY/WX    TMP DP  RH WIND       PRES   REMARKS
ROCHESTER      SUNNY     68  46  45 S9        30.05F
ROCHESTER/MAYO FAIR      67  42  39 S7        30.05F
WINONA         SUNNY     68  46  45 CALM      30.04F
AUSTIN         SUNNY     66  43  42 SW5       30.05F
ALBERT LEA     SUNNY     70  45  40 S7        30.04F
DODGE CENTER   SUNNY     70  39  32 SW10      30.04F
PRESTON        SUNNY     65  44  45 SW7       30.07F
OWATONNA       SUNNY     70  43  37 S8        30.03F
FARIBAULT      SUNNY     68  45  42 S7        30.03F
$$

...ELSEWHERE IN MINNESOTA...


CITY           SKY/WX    TMP DP  RH WIND       PRES   REMARKS
MINNEAPOLIS    MOSUNNY   65  46  50 SW7       30.01F
INTNL FALLS    SUNNY     68  35  29 SW10G18   29.87F
DULUTH         CLOUDY    66  38  35 SW13      29.96S
RED WING       SUNNY     64  43  45 CALM      30.01F
REDWOOD FALLS  SUNNY     71  38  29 SW7       30.00F
MANKATO        SUNNY     68  43  40 SW8       30.03F
WORTHINGTON    SUNNY     72  41  32 SW9       30.04F
FAIRMONT       SUNNY     71  43  36 SW9       30.03F
$$

...SOUTHWEST WISCONSIN...


CITY           SKY/WX    TMP DP  RH WIND       PRES   REMARKS
LA CROSSE      SUNNY     66  46  48 S8        30.06F
PRAIRIE DU CHI SUNNY     65  41  41 S6        30.09F
BOSCOBEL       SUNNY     68  44  42 SW8       30.09F
LONE ROCK      NOT AVBL
PLATTEVILLE    SUNNY     66  46  47 SW16      30.12F
FORT MC COY    SUNNY     63  44  50 SW5       30.07F
MAUSTON-NEW LI CLEAR     65  45  48 SW8       30.07F
VIROQUA        FAIR      63  46  54 SW9       30.09S
WIS DELLS      SUNNY     64  44  48 SW8       30.08F
$$

...ELSEWHERE IN WISCONSIN...


CITY           SKY/WX    TMP DP  RH WIND       PRES   REMARKS
MILWAUKEE      MOSUNNY   70  42  36 W13G26    30.11F
MADISON        MOSUNNY   65  45  48 VRB6      30.09F
GREEN BAY      SUNNY     64  50  60 SW9       30.04F
EAU CLAIRE     NOT AVBL
BLACK RVR FLS  FAIR      66  41  40 SW3       30.06F
MEDFORD        SUNNY     64  44  49 SW6       30.04F
WAUSAU         SUNNY     64  44  48 VRB6      30.03F
WIS RAPIDS     SUNNY     65  47  52 SW8       30.06F
MARSHFIELD     SUNNY     66  43  43 SW8       30.04F
RICE LAKE      SUNNY     66  44  43 SE6       30.02F
$$

...NORTHEAST IOWA...


CITY           SKY/WX    TMP DP  RH WIND       PRES   REMARKS
WATERLOO       SUNNY     67  43  41 SW12      30.08F
DUBUQUE        SUNNY     67  44  43 SW18      30.12F
DECORAH        SUNNY     66  45  45 VRB7      30.06F
MASON CITY     SUNNY     67  44  43 S10       30.07F
CHARLES CITY   SUNNY     68  43  40 S12       30.07F
OELWEIN        SUNNY     66  45  45 SW15      30.09F
$$

...ELSEWHERE IN IOWA...


CITY           SKY/WX    TMP DP  RH WIND       PRES   REMARKS
DES MOINES     MOSUNNY   70  42  36 SW14      30.10F
IOWA CITY      LGT RAIN  71  43  36 SW16      30.14F
FORT DODGE     SUNNY     67  45  45 S10       30.07F
MARSHALLTOWN   SUNNY     69  44  40 SW18      30.08F
CEDAR RAPIDS   SUNNY     70  42  36 SW16G22   30.11F
$$

...NORTHERN ILLINOIS...


CITY           SKY/WX    TMP DP  RH WIND       PRES   REMARKS
CHICAGO-OHARE  MOSUNNY   67  42  40 SW15G26   30.16F
CHICAGO-MIDWAY MOSUNNY   68  43  40 SW21G28   30.18F
MOLINE         SUNNY     69  43  38 SW14      30.16F
ROCKFORD       MOSUNNY   71  42  35 SW15      30.15F
PEORIA         SUNNY     68  42  38 SW16G30   30.22F
$$

NOTE: "FAIR" INDICATES FEW OR NO CLOUDS BELOW 12,000 FEET WITH NO
SIGNIFICANT WEATHER AND/OR OBSTRUCTIONS TO VISIBILITY. WIND
SPEEDS ARE IN MILES-PER-HOUR.




USA.gov is the U.S. government's official web portal to all federal, state and local government web resources and services.